CW9119 Weather Reports


Display with metric or nautical units.
time (UTC)temp
F
wind
direction
speed
MPH
gust
MPH
rain 1hr
in
rain 24hr
in
rain mn
in
humidity
%
barometer
mb
20260901003109 54 75 1.0 5.0 0.00 0.41 0.00 92 1015.6
20260901001109 54 112 0.0 0.0 0.00 0.41 0.00 93 1015.7
20260831234109 55 112 0.0 0.0 0.00 0.41 0.00 94 1015.7
20260831233108 54 112 0.0 0.0 0.00 0.41 0.00 94 1015.6
20260831232113 54 112 0.0 0.0 0.00 0.41 0.00 94 1015.7
20260831230113 54 112 0.0 1.0 0.00 0.41 0.00 94 1015.6
20260831225113 54 112 0.0 5.0 0.00 0.41 0.00 94 1015.7
20260831224113 54 112 0.0 0.0 0.00 0.41 0.00 94 1015.6
20260831223113 53 112 0.0 0.0 0.00 0.41 0.00 93 1015.5
20260831222113 54 112 0.0 0.0 0.00 0.41 0.00 93 1015.6
20260831220113 54 125 0.0 0.0 0.00 0.41 0.00 93 1015.5
20260831215113 54 125 0.0 0.0 0.00 0.41 0.41 93 1015.4
20260831213113 54 124 0.0 0.0 0.00 0.41 0.41 93 1015.3
20260831212113 54 125 0.0 0.0 0.00 0.41 0.41 92 1015.1
20260831210113 55 125 0.0 0.0 0.00 0.41 0.41 92 1015.3
20260831205113 55 125 0.0 0.0 0.00 0.41 0.41 92 1015.0
20260831202112 56 124 0.0 0.0 0.00 0.41 0.41 90 1015.0
20260831200112 56 124 0.0 0.0 0.00 0.41 0.41 90 1014.8
20260831192112 57 125 0.0 0.0 0.00 0.41 0.41 89 1014.5
20260831191113 57 125 0.0 0.0 0.00 0.41 0.41 88 1014.5
20260831190112 58 124 0.0 0.0 0.00 0.41 0.41 87 1014.5
20260831185112 58 124 0.0 0.0 0.00 0.41 0.41 86 1014.5
20260831184112 58 124 0.0 0.0 0.00 0.41 0.41 85 1014.5
20260831183112 59 124 0.0 0.0 0.00 0.41 0.41 84 1014.4
20260831175111 61 124 0.0 0.0 0.00 0.41 0.41 81 1013.7
20260831173111 62 125 0.0 0.0 0.00 0.41 0.41 79 1013.7
20260831164111 66 124 0.0 0.0 0.00 0.41 0.41 75 1013.9
20260831163111 66 125 0.0 1.0 0.00 0.41 0.41 74 1014.0
20260831160110 66 124 0.0 1.0 0.00 0.41 0.41 75 1013.9
20260831154110 66 123 1.0 6.0 0.00 0.41 0.41 74 1013.8
20260831153110 66 205 1.0 5.0 0.00 0.41 0.41 76 1014.0
20260831152110 66 204 1.0 6.0 0.00 0.41 0.41 78 1014.0
20260831151110 66 243 0.0 5.0 0.00 0.41 0.41 78 1014.0
20260831150110 67 292 0.0 1.0 0.00 0.41 0.41 78 1014.0
20260831145110 67 146 1.0 6.0 0.00 0.41 0.41 79 1013.9
20260831144110 67 194 1.0 10.0 0.00 0.41 0.41 81 1014.1
20260831141110 67 80 1.0 5.0 0.00 0.41 0.41 86 1014.1
20260831140110 66 134 0.0 5.0 0.00 0.41 0.41 89 1013.9
20260831135110 65 135 1.0 10.0 0.00 0.41 0.41 90 1014.0
20260831134110 64 135 1.0 10.0 0.00 0.41 0.41 92 1013.8
20260831131109 63 145 1.0 6.0 0.00 0.41 0.41 92 1014.0
20260831125113 63 145 0.0 0.0 0.00 0.41 0.41 94 1014.0
20260831124113 63 148 0.0 1.0 0.00 0.41 0.41 95 1014.0
20260831122112 61 174 0.0 0.0 0.00 0.41 0.41 94 1013.9
20260831121112 61 180 0.0 0.0 0.00 0.41 0.41 94 1013.9
20260831115112 60 180 0.0 1.0 0.00 0.41 0.41 94 1013.8
20260831111112 60 179 0.0 0.0 0.00 0.41 0.41 94 1013.8
20260831104112 60 141 0.0 5.0 0.00 0.41 0.41 94 1013.8
20260831100112 60 60 0.0 0.0 0.00 0.41 0.41 95 1013.9
20260831093112 60 60 0.0 0.0 0.01 0.41 0.41 95 1013.5
20260831092111 59 60 0.0 0.0 0.02 0.41 0.41 94 1013.5
20260831081111 58 59 0.0 0.0 0.36 0.36 0.36 93 1013.8
20260831074111 58 340 2.0 14.0 0.18 0.18 0.18 93 1014.3
20260831071111 57 87 0.0 0.0 0.00 0.00 0.00 93 1012.7
20260831070110 56 87 0.0 0.0 0.00 0.00 0.00 93 1012.8
20260831065110 56 87 0.0 0.0 0.00 0.00 0.00 93 1013.0
20260831062110 55 87 0.0 0.0 0.00 0.00 0.00 93 1013.2
20260831061110 54 87 0.0 0.0 0.00 0.00 0.00 93 1013.4
20260831055110 53 87 0.0 0.0 0.00 0.00 0.00 93 1013.3
20260831051110 52 96 0.0 0.0 0.00 0.00 0.00 93 1013.4
20260831050110 52 96 0.0 0.0 0.00 0.00 0.00 92 1013.5
20260831045110 52 96 0.0 0.0 0.00 0.00 0.00 92 1013.7
20260831041109 52 96 0.0 0.0 0.00 0.00 0.00 92 1013.5
20260831040109 52 96 0.0 0.0 0.00 0.00 0.00 91 1013.4
20260831035109 52 96 0.0 0.0 0.00 0.00 0.00 92 1013.6
20260831034109 52 96 0.0 0.0 0.00 0.00 0.00 91 1013.5
20260831033109 52 96 0.0 0.0 0.00 0.00 0.00 92 1013.7
20260831031109 53 96 0.0 0.0 0.00 0.00 0.00 92 1014.0
20260831025109 52 96 0.0 0.0 0.00 0.00 0.00 92 1014.1
20260831023109 52 96 0.0 0.0 0.00 0.00 0.00 92 1014.3
20260831022108 52 96 0.0 0.0 0.00 0.00 0.00 91 1014.2
20260831015109 53 96 0.0 0.0 0.00 0.00 0.00 91 1014.5
20260831011111 53 96 0.0 0.0 0.00 0.00 0.00 91 1014.6